When you browse on this site, cookies collect data to enhance your experience and personalize the content and advertising you see.
Visit our Privacy Policy to learn more. By continuing to use the site, you agree to this use of cookies and data.

Hourly Weather Tarin Kowt

Today, 19 September, Saturday

Time Temperature Precipitation Wind Pressure Humidity
00:00 +14°C° 0 mm 1 mps 614 mmHg 22%
01:00 +13°C° 0 mm 1 mps 613 mmHg 22%
02:00 +13°C° 0 mm 1 mps 613 mmHg 23%
03:00 +12°C° 0 mm 1 mps 613 mmHg 23%
04:00 +12°C° 0 mm 2 mps 613 mmHg 23%
05:00 +14°C° 0 mm 2 mps 614 mmHg 20%
06:00 +16°C° 0 mm 2 mps 616 mmHg 17%
07:00 +18°C° 0 mm 2 mps 617 mmHg 14%
08:00 +21°C° 0 mm 2 mps 617 mmHg 12%
09:00 +24°C° 0 mm 1 mps 618 mmHg 10%
10:00 +26°C° 0 mm 1 mps 618 mmHg 8%
11:00 +27°C° 0 mm 1 mps 618 mmHg 7%
12:00 +29°C° 0 mm 2 mps 618 mmHg 6%
13:00 +30°C° 0 mm 2 mps 618 mmHg 5%
14:00 +30°C° 0 mm 2 mps 618 mmHg 5%
15:00 +30°C° 0 mm 3 mps 617 mmHg 6%
16:00 +29°C° 0 mm 4 mps 617 mmHg 6%
17:00 +26°C° 0 mm 3 mps 616 mmHg 9%
18:00 +21°C° 0 mm 3 mps 615 mmHg 13%
19:00 +18°C° 0 mm 2 mps 614 mmHg 16%
20:00 +17°C° 0 mm 2 mps 614 mmHg 18%
21:00 +16°C° 0 mm 1 mps 614 mmHg 19%
22:00 +15°C° 0 mm 1 mps 613 mmHg 21%
23:00 +14°C° 0 mm 1 mps 613 mmHg 21%

Tomorrow, 20 September, Sunday

Time Temperature Precipitation Wind Pressure Humidity
00:00 +14°C° 0 mm 1 mps 613 mmHg 21%
01:00 +13°C° 0 mm 1 mps 613 mmHg 22%
02:00 +13°C° 0 mm 1 mps 613 mmHg 22%
03:00 +13°C° 0 mm 1 mps 613 mmHg 22%
04:00 +13°C° 0 mm 1 mps 613 mmHg 23%
05:00 +15°C° 0 mm 1 mps 615 mmHg 19%
06:00 +19°C° 0 mm 1 mps 616 mmHg 16%
07:00 +22°C° 0 mm 1 mps 618 mmHg 12%
08:00 +24°C° 0 mm 1 mps 618 mmHg 11%
09:00 +26°C° 0 mm 1 mps 619 mmHg 9%
10:00 +28°C° 0 mm 1 mps 619 mmHg 7%
11:00 +29°C° 0 mm 1 mps 619 mmHg 6%
12:00 +30°C° 0 mm 2 mps 619 mmHg 6%
13:00 +31°C° 0 mm 2 mps 619 mmHg 5%
14:00 +31°C° 0 mm 3 mps 618 mmHg 5%
15:00 +32°C° 0 mm 4 mps 618 mmHg 5%
16:00 +32°C° 0 mm 4 mps 617 mmHg 6%
17:00 +27°C° 0 mm 4 mps 617 mmHg 7%
18:00 +24°C° 0 mm 3 mps 616 mmHg 9%
19:00 +19°C° 0 mm 2 mps 615 mmHg 11%
20:00 +18°C° 0 mm 2 mps 615 mmHg 11%
21:00 +17°C° 0 mm 2 mps 615 mmHg 12%
22:00 +16°C° 0 mm 1 mps 615 mmHg 13%
23:00 +15°C° 0 mm 1 mps 614 mmHg 13%

Day after tomorrow, 21 September, Monday

Time Temperature Precipitation Wind Pressure Humidity
00:00 +15°C° 0 mm 1 mps 614 mmHg 14%
01:00 +14°C° 0 mm 1 mps 614 mmHg 15%
02:00 +14°C° 0 mm 1 mps 613 mmHg 16%
03:00 +14°C° 0 mm 1 mps 613 mmHg 18%
04:00 +13°C° 0 mm 1 mps 613 mmHg 20%
05:00 +16°C° 0 mm 1 mps 615 mmHg 16%
06:00 +18°C° 0 mm 2 mps 616 mmHg 13%
07:00 +21°C° 0 mm 2 mps 617 mmHg 9%
08:00 +24°C° 0 mm 2 mps 618 mmHg 8%
09:00 +26°C° 0 mm 2 mps 618 mmHg 7%
10:00 +28°C° 0 mm 2 mps 619 mmHg 6%
11:00 +29°C° 0 mm 2 mps 619 mmHg 5%
12:00 +31°C° 0 mm 2 mps 619 mmHg 4%
13:00 +32°C° 0 mm 2 mps 619 mmHg 3%
14:00 +33°C° 0 mm 3 mps 618 mmHg 3%
15:00 +33°C° 0 mm 4 mps 618 mmHg 3%
16:00 +32°C° 0 mm 4 mps 617 mmHg 3%
17:00 +28°C° 0 mm 4 mps 616 mmHg 5%
18:00 +24°C° 0 mm 3 mps 616 mmHg 6%
19:00 +20°C° 0 mm 3 mps 615 mmHg 8%
20:00 +18°C° 0 mm 2 mps 615 mmHg 8%
21:00 +17°C° 0 mm 2 mps 614 mmHg 9%
22:00 +16°C° 0 mm 1 mps 614 mmHg 10%
23:00 +15°C° 0 mm 1 mps 614 mmHg 11%

22 September, Tuesday

Time Temperature Precipitation Wind Pressure Humidity
00:00 +14°C° 0 mm 1 mps 614 mmHg 12%
01:00 +14°C° 0 mm 1 mps 613 mmHg 13%
02:00 +13°C° 0 mm 2 mps 613 mmHg 13%
03:00 +13°C° 0 mm 2 mps 613 mmHg 13%
04:00 +12°C° 0 mm 2 mps 613 mmHg 13%
05:00 +14°C° 0 mm 2 mps 614 mmHg 12%
06:00 +16°C° 0 mm 2 mps 615 mmHg 10%
07:00 +18°C° 0 mm 3 mps 617 mmHg 8%
08:00 +20°C° 0 mm 3 mps 617 mmHg 7%
09:00 +24°C° 0 mm 3 mps 617 mmHg 6%
10:00 +26°C° 0 mm 2 mps 618 mmHg 4%
11:00 +28°C° 0 mm 2 mps 618 mmHg 4%
12:00 +29°C° 0 mm 2 mps 618 mmHg 3%
13:00 +31°C° 0 mm 1 mps 617 mmHg 3%
14:00 +31°C° 0 mm 2 mps 617 mmHg 3%
15:00 +31°C° 0 mm 3 mps 617 mmHg 3%
16:00 +30°C° 0 mm 4 mps 616 mmHg 3%
17:00 +27°C° 0 mm 3 mps 615 mmHg 5%
18:00 +22°C° 0 mm 3 mps 614 mmHg 7%
19:00 +18°C° 0 mm 2 mps 613 mmHg 8%
20:00 +17°C° 0 mm 2 mps 613 mmHg 9%
21:00 +16°C° 0 mm 1 mps 613 mmHg 10%
22:00 +15°C° 0 mm 1 mps 613 mmHg 12%
23:00 +14°C° 0 mm 1 mps 612 mmHg 12%

23 September, Wednesday

Time Temperature Precipitation Wind Pressure Humidity
00:00 +14°C° 0 mm 1 mps 612 mmHg 13%
01:00 +13°C° 0 mm 1 mps 612 mmHg 14%
02:00 +13°C° 0 mm 1 mps 612 mmHg 18%
03:00 +12°C° 0 mm 1 mps 612 mmHg 21%
04:00 +11°C° 0 mm 1 mps 611 mmHg 24%
05:00 +13°C° 0 mm 1 mps 613 mmHg 21%
06:00 +16°C° 0 mm 1 mps 614 mmHg 19%
07:00 +18°C° 0 mm 2 mps 615 mmHg 16%
08:00 +21°C° 0 mm 1 mps 616 mmHg 14%
09:00 +23°C° 0 mm 1 mps 616 mmHg 12%
10:00 +25°C° 0 mm 1 mps 616 mmHg 10%
11:00 +26°C° 0 mm 2 mps 616 mmHg 9%
12:00 +27°C° 0 mm 2 mps 616 mmHg 8%
13:00 +29°C° 0 mm 3 mps 616 mmHg 6%
14:00 +29°C° 0 mm 3 mps 615 mmHg 6%
15:00 +28°C° 0 mm 3 mps 615 mmHg 7%
16:00 +28°C° 0 mm 3 mps 615 mmHg 7%
17:00 +24°C° 0 mm 3 mps 614 mmHg 12%
18:00 +20°C° 0 mm 2 mps 613 mmHg 16%
19:00 +16°C° 0 mm 1 mps 611 mmHg 21%
20:00 +15°C° 0 mm 1 mps 612 mmHg 23%
21:00 +13°C° 0 mm 0 mps 612 mmHg 25%
22:00 +13°C° 0 mm 0 mps 612 mmHg 27%
23:00 +12°C° 0 mm 0 mps 612 mmHg 27%

24 September, Thursday

Time Temperature Precipitation Wind Pressure Humidity
00:00 +13°C° 0 mm 1 mps 612 mmHg 27%
01:00 +13°C° 0 mm 1 mps 612 mmHg 28%
02:00 +12°C° 0 mm 1 mps 612 mmHg 29%
03:00 +12°C° 0 mm 1 mps 612 mmHg 30%
04:00 +11°C° 0 mm 1 mps 612 mmHg 31%
05:00 +13°C° 0 mm 1 mps 613 mmHg 28%
06:00 +16°C° 0 mm 1 mps 614 mmHg 25%
07:00 +19°C° 0 mm 1 mps 616 mmHg 21%
08:00 +21°C° 0 mm 1 mps 616 mmHg 19%
09:00 +23°C° 0 mm 2 mps 616 mmHg 16%
10:00 +25°C° 0 mm 2 mps 617 mmHg 13%
11:00 +26°C° 0 mm 2 mps 617 mmHg 12%
12:00 +27°C° 0 mm 2 mps 617 mmHg 10%
13:00 +28°C° 0 mm 2 mps 617 mmHg 9%
14:00 +28°C° 0 mm 3 mps 616 mmHg 9%
15:00 +28°C° 0 mm 3 mps 616 mmHg 9%
16:00 +28°C° 0 mm 4 mps 616 mmHg 9%
17:00 +24°C° 0 mm 3 mps 615 mmHg 13%
18:00 +20°C° 0 mm 2 mps 614 mmHg 16%
19:00 +16°C° 0 mm 2 mps 613 mmHg 20%
20:00 +15°C° 0 mm 1 mps 613 mmHg 21%
21:00 +14°C° 0 mm 1 mps 613 mmHg 22%
22:00 +13°C° 0 mm 1 mps 612 mmHg 24%
23:00 +12°C° 0 mm 0 mps 612 mmHg 24%
Show more